User: anonymous   Login
Location: Hokitika
(42.7170°S, 170.9670°E)
Time: 02:06:25
(UTC+13:00)
Language:

Cosmos 1763 Rocket - Orbit

View from above orbital plane
View from above orbital plane
View from above satellite
View from above satellite

Ground track
Ground track

The orbit data is extracted from the following two-line orbital elements,

1 16864U 86052B   19293.57757110 -.00000028 +00000-0 -29647-6 0  9999
2 16864 074.0265 311.2553 0033478 199.3293 160.6595 14.40558372745830
Epoch (UTC): 20 October 2019 13:51:42
Eccentricity: 0.0033478
inclination: 74.0265°
perigee height: 733 km
apogee height: 780 km
right ascension of ascending node: 311.2553°
argument of perigee: 199.3293°
revolutions per day: 14.40558372
mean anomaly at epoch: 160.6595°
orbit number at epoch: 74583

The dashed part of the orbit path shows where the satellite is in the earth's shadow,  

DLR